Moorhead, MN

3:15 PM CDT on April 30, 2017 (GMT -0500)
Moorhead Municipal

Weather History for KJKJ - October, 2013

Change the Weather History Date:

Thursday, October 10, 2013

  Actual Average (KFAR) Record (KFAR)
Temperature  
Mean Temperature 62 °F -  
Max Temperature 73 °F 58 °F 86 °F (2003)
Min Temperature 50 °F 37 °F 16 °F (1987)
Degree Days  
Heating Degree Days 4    
Growing Degree Days 12 (Base 50)    
Moisture  
Dew Point 54 °F    
Average Humidity 74    
Maximum Humidity 100    
Minimum Humidity 50    
Precipitation  
Precipitation 0.00 in - - ()
Sea Level Pressure  
Sea Level Pressure 29.81 in    
Wind  
Wind Speed 6 mph (SE)    
Max Wind Speed 18 mph    
Max Gust Speed 24 mph    
Visibility 10 miles    
Events      
Averages and records for this station are not official NWS values.
T = Trace of Precipitation, MM = Missing Value Source: NWS Daily Summary

Daily Weather History Graph

Daily Weather History Graph

Search for Another Location

Airport or City:

Trip Planner

Search our weather history database for the weather conditions in past years. The results will help you decide how hot, cold, wet, or windy it might be!

Date:

Astronomy

Oct. 10, 2013 Rise Set
Actual Time 7:37 AM CDT 6:48 PM CDT
Civil Twilight 7:07 AM CDT 7:18 PM CDT
Nautical Twilight 6:32 AM CDT 7:53 PM CDT
Astronomical Twilight 5:57 AM CDT 8:29 PM CDT
Moon 1:44 PM CDT (10/10) 11:14 PM CDT (10/10)
Length of Visible Light 12h 11m
Length of Day
11h 10m
Waxing Crescent, 36% of the Moon is Illuminated
Oct 10
Waxing Crescent
Oct 11
First Quarter
Oct 18
Full
Oct 26
Last Quarter
Nov 3
New

Hourly Weather History & Observations

Time (CDT) Temp. Dew Point Humidity Pressure Visibility Wind Dir Wind Speed Gust Speed Precip Events Conditions
12:15 AM 51.8 °F 50.0 °F 94% 29.95 in 10.0 mi Calm Calm - N/A   Clear
12:34 AM 53.6 °F 48.2 °F 82% 29.94 in 10.0 mi NNE 3.5 mph - N/A   Clear
12:55 AM 53.6 °F 48.2 °F 82% 29.93 in 10.0 mi NE 3.5 mph - N/A   Clear
1:15 AM 51.8 °F 48.2 °F 88% 29.93 in 10.0 mi NNE 4.6 mph - N/A   Clear
1:34 AM 51.8 °F 48.2 °F 88% 29.92 in 10.0 mi NE 4.6 mph - N/A   Clear
1:55 AM 50.0 °F 48.2 °F 94% 29.92 in 10.0 mi Calm Calm - N/A   Clear
2:15 AM 51.8 °F 51.8 °F 100% 29.92 in 10.0 mi East 4.6 mph - N/A   Clear
2:34 AM 53.6 °F 51.8 °F 94% 29.92 in 10.0 mi East 4.6 mph - N/A   Mostly Cloudy
2:55 AM 51.8 °F 51.8 °F 100% 29.91 in 10.0 mi Calm Calm - N/A   Mostly Cloudy
3:15 AM 53.6 °F 51.8 °F 94% 29.90 in 10.0 mi ESE 4.6 mph - N/A   Scattered Clouds
3:35 AM 55.4 °F 53.6 °F 94% 29.90 in 10.0 mi SE 4.6 mph - N/A   Clear
3:55 AM 57.2 °F 53.6 °F 88% 29.90 in 10.0 mi SE 4.6 mph - N/A   Scattered Clouds
4:14 AM 55.4 °F 53.6 °F 94% 29.90 in 10.0 mi SE 4.6 mph - N/A   Mostly Cloudy
4:35 AM 57.2 °F 53.6 °F 88% 29.89 in 10.0 mi SE 5.8 mph - N/A   Overcast
4:55 AM 57.2 °F 53.6 °F 88% 29.89 in 10.0 mi SE 5.8 mph - N/A   Mostly Cloudy
5:14 AM 57.2 °F 53.6 °F 88% 29.89 in 10.0 mi SE 5.8 mph - N/A   Mostly Cloudy
5:35 AM 57.2 °F 53.6 °F 88% 29.88 in 10.0 mi SE 3.5 mph - N/A   Mostly Cloudy
5:55 AM 55.4 °F 53.6 °F 94% 29.88 in 10.0 mi Calm Calm - N/A   Mostly Cloudy
6:14 AM 55.4 °F 53.6 °F 94% 29.88 in 10.0 mi SE 3.5 mph - N/A   Mostly Cloudy
6:35 AM 55.4 °F 53.6 °F 94% 29.87 in 10.0 mi SE 4.6 mph - N/A   Mostly Cloudy
6:55 AM 55.4 °F 53.6 °F 94% 29.87 in 10.0 mi SE 3.5 mph - N/A   Scattered Clouds
7:14 AM 55.4 °F 53.6 °F 94% 29.87 in 10.0 mi SE 4.6 mph - N/A   Scattered Clouds
7:35 AM 55.4 °F 53.6 °F 94% 29.87 in 10.0 mi SE 3.5 mph - N/A   Mostly Cloudy
7:55 AM 55.4 °F 53.6 °F 94% 29.86 in 10.0 mi SSE 4.6 mph - N/A   Mostly Cloudy
8:15 AM 55.4 °F 53.6 °F 94% 29.86 in 7.0 mi SE 4.6 mph - N/A   Mostly Cloudy
8:35 AM 55.4 °F 53.6 °F 94% 29.85 in 7.0 mi SSE 6.9 mph - N/A   Mostly Cloudy
8:55 AM 57.2 °F 53.6 °F 88% 29.85 in 10.0 mi SSE 8.1 mph - N/A   Mostly Cloudy
9:14 AM 57.2 °F 53.6 °F 88% 29.85 in 10.0 mi SSE 9.2 mph - N/A   Scattered Clouds
9:35 AM 57.2 °F 53.6 °F 88% 29.85 in 10.0 mi SSE 8.1 mph - N/A   Clear
9:55 AM 59.0 °F 53.6 °F 82% 29.85 in 10.0 mi South 10.4 mph - N/A   Clear
10:14 AM 60.8 °F 53.6 °F 77% 29.85 in 10.0 mi South 11.5 mph 16.1 mph N/A   Clear
10:35 AM 60.8 °F 53.6 °F 77% 29.85 in 10.0 mi South 11.5 mph 16.1 mph N/A   Clear
10:54 AM 60.8 °F 53.6 °F 77% 29.85 in 10.0 mi South 12.7 mph 17.3 mph N/A   Clear
11:15 AM 62.6 °F 53.6 °F 72% 29.84 in 10.0 mi South 9.2 mph - N/A   Clear
11:34 AM 62.6 °F 53.6 °F 72% 29.83 in 10.0 mi South 11.5 mph - N/A   Clear
11:55 AM 64.4 °F 55.4 °F 73% 29.83 in 10.0 mi South 11.5 mph - N/A   Clear
12:15 PM 66.2 °F 55.4 °F 68% 29.82 in 10.0 mi South 10.4 mph 16.1 mph N/A   Clear
12:34 PM 66.2 °F 55.4 °F 68% 29.81 in 10.0 mi South 9.2 mph - N/A   Clear
12:55 PM 68.0 °F 55.4 °F 64% 29.82 in 10.0 mi South 11.5 mph - N/A   Clear
1:15 PM 69.8 °F 55.4 °F 60% 29.81 in 10.0 mi SSE 11.5 mph - N/A   Clear
1:34 PM 69.8 °F 55.4 °F 60% 29.80 in 10.0 mi South 12.7 mph 17.3 mph N/A   Clear
1:55 PM 69.8 °F 55.4 °F 60% 29.79 in 10.0 mi South 11.5 mph 17.3 mph N/A   Clear
2:15 PM 69.8 °F 55.4 °F 60% 29.78 in 10.0 mi South 10.4 mph - N/A   Clear
2:34 PM 71.6 °F 55.4 °F 57% 29.77 in 10.0 mi SSE 12.7 mph - N/A   Clear
2:55 PM 71.6 °F 55.4 °F 57% 29.77 in 10.0 mi SSE 15.0 mph 20.7 mph N/A   Clear
3:15 PM 71.6 °F 55.4 °F 57% 29.77 in 10.0 mi SSE 15.0 mph - N/A   Clear
3:34 PM 71.6 °F 55.4 °F 57% 29.76 in 10.0 mi South 13.8 mph 19.6 mph N/A   Clear
3:55 PM 73.4 °F 53.6 °F 50% 29.76 in 10.0 mi SSE 15.0 mph 20.7 mph N/A   Clear
4:15 PM 73.4 °F 53.6 °F 50% 29.76 in 10.0 mi South 11.5 mph 17.3 mph N/A   Clear
4:34 PM 73.4 °F 55.4 °F 53% 29.75 in 10.0 mi South 8.1 mph 17.3 mph N/A   Clear
4:55 PM 73.4 °F 55.4 °F 53% 29.75 in 10.0 mi South 4.6 mph - N/A   Clear
5:15 PM 73.4 °F 55.4 °F 53% 29.74 in 10.0 mi South 8.1 mph - N/A   Clear
5:34 PM 71.6 °F 55.4 °F 57% 29.74 in 10.0 mi South 6.9 mph - N/A   Clear
5:55 PM 71.6 °F 57.2 °F 60% 29.74 in 10.0 mi Calm Calm - N/A   Clear
6:15 PM 71.6 °F 57.2 °F 60% 29.73 in 10.0 mi Calm Calm - N/A   Clear
6:34 PM 69.8 °F 57.2 °F 64% 29.73 in 10.0 mi East 3.5 mph - N/A   Clear
6:55 PM 68.0 °F 59.0 °F 73% 29.72 in 10.0 mi East 4.6 mph - N/A   Clear
7:15 PM 66.2 °F 59.0 °F 78% 29.72 in 7.0 mi East 5.8 mph - N/A   Clear
7:34 PM 66.2 °F 59.0 °F 78% 29.72 in 10.0 mi East 6.9 mph - N/A   Clear
7:55 PM 64.4 °F 59.0 °F 83% 29.71 in 10.0 mi ESE 5.8 mph - N/A   Clear
8:14 PM 66.2 °F 57.2 °F 73% 29.71 in 10.0 mi ESE 6.9 mph - N/A   Clear
8:35 PM 66.2 °F 57.2 °F 73% 29.71 in 10.0 mi SE 9.2 mph - N/A   Clear
8:55 PM 68.0 °F 55.4 °F 64% 29.71 in 10.0 mi SE 9.2 mph - N/A   Clear
9:15 PM 69.8 °F 55.4 °F 60% 29.70 in 10.0 mi SSE 9.2 mph - N/A   Clear
9:34 PM 69.8 °F 53.6 °F 56% 29.70 in 10.0 mi SSE 12.7 mph 18.4 mph N/A   Clear
9:55 PM 71.6 °F 53.6 °F 53% 29.71 in 10.0 mi SSE 15.0 mph 20.7 mph N/A   Clear
10:15 PM 71.6 °F 53.6 °F 53% 29.71 in 10.0 mi SSE 15.0 mph 20.7 mph N/A   Scattered Clouds
10:34 PM 71.6 °F 51.8 °F 50% 29.71 in 10.0 mi SSE 18.4 mph 24.2 mph N/A   Clear
10:55 PM 71.6 °F 51.8 °F 50% 29.71 in 10.0 mi SSE 16.1 mph - N/A   Clear
11:15 PM 69.8 °F 51.8 °F 53% 29.70 in 10.0 mi SSE 17.3 mph 24.2 mph N/A   Clear
11:34 PM 69.8 °F 51.8 °F 53% 29.70 in 10.0 mi SSE 17.3 mph 21.9 mph N/A   Clear
11:55 PM 69.8 °F 51.8 °F 53% 29.70 in 10.0 mi SSE 13.8 mph 21.9 mph N/A   Clear